User: anonymous
Location: Castro Valley
(37.6940°N, 122.0850°W)
Time: 19:14:57
(UTC-07:00)
Language:

PANSAT - Orbit

View from above orbital plane
View from above orbital plane
View from above satellite
View from above satellite

Ground track
Ground track

The orbit data is extracted from the following two-line orbital elements,

1 25520U 98064B   14104.88936441  .00004032  00000-0  15730-3 0  4661
2 25520 028.4583 297.2989 0004727 128.9957 004.5822 15.23151328856970
Epoch (UTC): 14 April 2014 21:20:41
Eccentricity: 0.0004727
inclination: 28.4583°
perigee height: 493 km
apogee height: 499 km
right ascension of ascending node: 297.2989°
argument of perigee: 128.9957°
revolutions per day: 15.23151328
mean anomaly at epoch: 4.5822°
orbit number at epoch: 85697

The dashed part of the orbit path shows where the satellite is in the earth's shadow,  

DLR